Home   Weather   Jerusalem   Past weeks
Flag for Israel

Past Weather in Jerusalem, Israel — Yesterday and Last 2 Weeks

Now
61 °F

Passing clouds.


Feels Like: 61 °F
Forecast: 52 / 36 °F
Wind: 7 mph from North

Location: Ben Gurion International Airport

Current Time: Feb 21, 2019 at 4:21:52 pm

Latest Report: Feb 21, 2019 at 3:20 pm


Visibility: N/A

Pressure: 30.09 "Hg (27.48 "Hg at 769m altitude)

Humidity: 55%

Dew Point: 45 °F

Location of JerusalemLocation

Past Weather in Jerusalem — Graph

°F

Jerusalem Temperature Yesterday

Maximum temperature yesterday: 64 °F (at 10:50 am)
Minimum temperature yesterday: 52 °F (at 1:20 am)
Average temperature yesterday: 57 °F

High & Low Weather Summary for the Past Weeks

 TemperatureHumidityPressure
High73 °F (Feb 13, 1:50 pm)100% (Feb 7, 5:20 am)30.21 "Hg (Feb 7, 5:20 am)
Low45 °F (Feb 19, 5:50 am)23% (Feb 13, 2:20 pm)29.86 "Hg (Feb 6, 6:50 pm)
Average56 °F73%30.06 "Hg
* Reported Feb 6 3:20 pm — Feb 21 3:20 pm, Jerusalem. Weather by CustomWeather, © 2019

Note: Actual official high and low records may vary slightly from our data, if they occured in-between our weather recording intervals... More about our weather records

Advertising

Jerusalem Weather History for the Previous 24 Hours

Scroll right to see more
 ConditionsComfort  
Time TempWeatherWind HumidityBarometerVisibility
3:20 pm
Thu, Feb 21
61 °FPassing clouds.7 mph55%30.09 "HgN/A
2:50 pm59 °FScattered clouds.9 mph59%30.12 "HgN/A
2:20 pm59 °FPartly sunny.14 mph63%30.12 "HgN/A
1:50 pm63 °FPartly sunny.12 mph59%30.09 "HgN/A
1:20 pm61 °FLight rain. Partly sunny.10 mph63%30.09 "HgN/A
12:50 pm59 °FPartly sunny.1 mph63%30.12 "HgN/A
12:20 pm59 °FPartly sunny.6 mph63%30.12 "HgN/A
11:50 am57 °FRain. Partly sunny.14 mph77%30.12 "Hg6 mi
11:20 am61 °FLight rain. Scattered clouds.5 mph59%30.12 "HgN/A
10:50 am64 °FScattered clouds.3 mph56%30.12 "HgN/A
10:20 am61 °FScattered clouds.2 mph63%30.15 "HgN/A
9:50 am61 °FPassing clouds.2 mph63%30.15 "HgN/A
9:20 am59 °FPassing clouds.2 mph68%30.15 "HgN/A
8:50 am57 °FSunny.2 mph67%30.15 "Hg10 mi
8:20 am54 °FSunny.3 mph77%30.15 "Hg10 mi
7:50 am52 °FSunny.2 mph82%30.15 "Hg10 mi
7:20 am50 °FSunny.1 mph88%30.15 "Hg10 mi
6:50 am50 °FSunny.2 mph88%30.15 "Hg10 mi
6:20 am50 °FSunny.1 mph88%30.12 "Hg10 mi
5:50 am50 °FClear.3 mph88%30.12 "Hg10 mi
5:20 am50 °FClear.2 mph88%30.12 "Hg10 mi
4:50 am48 °FClear.1 mph94%30.12 "Hg10 mi
4:20 am48 °FClear.1 mph87%30.12 "Hg10 mi
3:50 am50 °FClear.No wind88%30.12 "Hg10 mi
3:20 am50 °FClear.1 mph88%30.12 "Hg10 mi
2:50 am50 °FClear.1 mph88%30.12 "Hg10 mi
1:50 am52 °FClear.3 mph82%30.15 "Hg10 mi
1:20 am52 °FClear.5 mph82%30.15 "Hg10 mi
12:50 am50 °FClear.1 mph88%30.15 "Hg10 mi
12:20 am50 °FClear.1 mph88%30.15 "Hg10 mi
11:50 pm
Wed, Feb 20
52 °FClear.5 mph88%30.15 "Hg10 mi
11:20 pm52 °FClear.3 mph88%30.15 "Hg10 mi
10:50 pm54 °FClear.3 mph82%30.15 "Hg10 mi
10:20 pm54 °FClear.5 mph82%30.15 "Hg10 mi
9:50 pm55 °FClear.5 mph82%30.18 "Hg10 mi
9:20 pm55 °FClear.3 mph82%30.18 "Hg10 mi
8:50 pm55 °FClear.3 mph82%30.18 "Hg10 mi
8:20 pm59 °FPassing clouds.1 mph68%30.18 "HgN/A
7:50 pm57 °FPassing clouds.3 mph72%30.18 "HgN/A
7:20 pm59 °FPassing clouds.3 mph68%30.18 "HgN/A
6:50 pm57 °FPassing clouds.6 mph77%30.15 "HgN/A
6:20 pm57 °FPassing clouds.6 mph77%30.15 "HgN/A
5:50 pm59 °FPassing clouds.8 mph72%30.15 "HgN/A
5:20 pm59 °FScattered clouds.9 mph72%30.15 "HgN/A
4:50 pm61 °FPassing clouds.8 mph68%30.15 "HgN/A
4:20 pm61 °FPassing clouds.9 mph59%30.15 "HgN/A
Weather by CustomWeather, © 2019

See weather overview